DLH1W8 EDDF-EDDL

Flight info

Callsign DLH1W8
Flight time 0h 29m
Altitude 22000
Route MARUN3W/25C MARUN Y152 ARPEG Z850 ADEMI T854 DOMUX DOMUX1A
Aircraft A320/M-SDE3FGHIRWY/LB1

Departure

Time 2026-05-04 13:11
Airport Frankfurt Main Airport (EDDF)

Arrival

Time 2026-05-04 13:40
Airport Düsseldorf Airport (EDDL)
Time Latitude Longitude Altitude Speed Heading
2026-05-04 12:14 50.04640 8.56667 363 ft 0 kts 113°
2026-05-04 12:58 50.04649 8.56634 365 ft 4 kts 114°
2026-05-04 12:58 50.04660 8.56596 367 ft 4 kts 118°
2026-05-04 12:58 50.04675 8.56562 365 ft 4 kts 143°
2026-05-04 12:59 50.04697 8.56549 366 ft 3 kts 199°
2026-05-04 12:59 50.04705 8.56554 369 ft 0 kts 205°
2026-05-04 13:02 50.04703 8.56551 367 ft 1 kts 205°
2026-05-04 13:02 50.04689 8.56542 368 ft 3 kts 206°
2026-05-04 13:03 50.04654 8.56515 365 ft 8 kts 205°
2026-05-04 13:03 50.04579 8.56461 359 ft 16 kts 204°
2026-05-04 13:03 50.04510 8.56359 365 ft 14 kts 247°
2026-05-04 13:03 50.04471 8.56194 361 ft 17 kts 249°
2026-05-04 13:04 50.04429 8.56051 365 ft 12 kts 229°
2026-05-04 13:04 50.04359 8.56048 363 ft 10 kts 161°
2026-05-04 13:04 50.04300 8.56095 362 ft 10 kts 131°
2026-05-04 13:04 50.04273 8.56183 362 ft 8 kts 140°
2026-05-04 13:05 50.04226 8.56214 362 ft 6 kts 161°
2026-05-04 13:05 50.04193 8.56233 361 ft 6 kts 160°
2026-05-04 13:05 50.04156 8.56255 359 ft 6 kts 158°
2026-05-04 13:05 50.04136 8.56305 354 ft 6 kts 92°
2026-05-04 13:06 50.04149 8.56372 356 ft 9 kts 69°
2026-05-04 13:06 50.04186 8.56524 361 ft 19 kts 70°
2026-05-04 13:06 50.04234 8.56730 364 ft 20 kts 70°
2026-05-04 13:06 50.04277 8.56902 369 ft 14 kts 70°
2026-05-04 13:07 50.04313 8.57055 370 ft 19 kts 69°
2026-05-04 13:07 50.04363 8.57255 367 ft 19 kts 70°
2026-05-04 13:07 50.04405 8.57439 367 ft 18 kts 70°
2026-05-04 13:07 50.04442 8.57603 372 ft 14 kts 70°
2026-05-04 13:08 50.04473 8.57728 373 ft 11 kts 70°
2026-05-04 13:08 50.04501 8.57844 374 ft 11 kts 69°
2026-05-04 13:08 50.04538 8.57996 373 ft 19 kts 69°
2026-05-04 13:08 50.04587 8.58203 373 ft 22 kts 69°
2026-05-04 13:09 50.04639 8.58420 375 ft 21 kts 70°
2026-05-04 13:09 50.04644 8.58547 370 ft 13 kts 120°
2026-05-04 13:09 50.04563 8.58604 372 ft 13 kts 162°
2026-05-04 13:09 50.04480 8.58568 373 ft 14 kts 234°
2026-05-04 13:10 50.04438 8.58368 372 ft 38 kts 250°
2026-05-04 13:10 50.04258 8.57623 363 ft 106 kts 249°
2026-05-04 13:10 50.03939 8.56294 357 ft 155 kts 249°
2026-05-04 13:10 50.03561 8.54681 959 ft 157 kts 250°
2026-05-04 13:11 50.03181 8.53079 1753 ft 159 kts 249°
2026-05-04 13:11 50.02767 8.51359 2268 ft 179 kts 248°
2026-05-04 13:11 50.02160 8.49584 2853 ft 196 kts 227°
2026-05-04 13:11 50.01051 8.48365 3631 ft 202 kts 204°
2026-05-04 13:12 49.99653 8.47869 4483 ft 209 kts 191°
2026-05-04 13:12 49.98201 8.47562 5295 ft 213 kts 191°
2026-05-04 13:12 49.96729 8.47240 6190 ft 215 kts 191°
2026-05-04 13:12 49.95255 8.46713 6878 ft 226 kts 199°
2026-05-04 13:13 49.93677 8.45988 7447 ft 243 kts 198°
2026-05-04 13:13 49.92109 8.44970 8248 ft 248 kts 216°
2026-05-04 13:13 49.90977 8.42961 9083 ft 253 kts 242°
2026-05-04 13:13 49.90607 8.40263 9899 ft 264 kts 270°
2026-05-04 13:14 49.91184 8.37526 10626 ft 276 kts 302°
2026-05-04 13:14 49.92653 8.35559 11352 ft 287 kts 332°
2026-05-04 13:14 49.94530 8.34271 11731 ft 307 kts 335°
2026-05-04 13:14 49.96581 8.32948 11961 ft 331 kts 336°
2026-05-04 13:15 49.98780 8.31549 12229 ft 351 kts 336°
2026-05-04 13:15 50.01072 8.30107 12779 ft 359 kts 338°
2026-05-04 13:15 50.03506 8.29145 12964 ft 363 kts 351°
2026-05-04 13:15 50.06026 8.29012 12998 ft 363 kts
2026-05-04 13:16 50.08504 8.29707 12999 ft 363 kts 17°
2026-05-04 13:16 50.10896 8.30963 13001 ft 363 kts 19°
2026-05-04 13:16 50.13194 8.32176 13258 ft 366 kts 19°
2026-05-04 13:16 50.15615 8.33437 14034 ft 368 kts 18°
2026-05-04 13:17 50.18064 8.34703 14704 ft 371 kts 18°
2026-05-04 13:17 50.20526 8.35981 15341 ft 375 kts 18°
2026-05-04 13:17 50.23016 8.37286 15972 ft 379 kts 18°
2026-05-04 13:17 50.25489 8.38590 16593 ft 383 kts 18°
2026-05-04 13:18 50.28033 8.39933 17211 ft 387 kts 18°
2026-05-04 13:18 50.30586 8.41281 17813 ft 391 kts 19°
2026-05-04 13:18 50.33218 8.42698 18402 ft 395 kts 19°
2026-05-04 13:18 50.35793 8.44106 18912 ft 399 kts 19°
2026-05-04 13:19 50.38427 8.45560 19419 ft 402 kts 19°
2026-05-04 13:19 50.41084 8.47028 19953 ft 406 kts 19°
2026-05-04 13:19 50.43760 8.48500 20453 ft 409 kts 18°
2026-05-04 13:19 50.46460 8.49980 20951 ft 413 kts 18°
2026-05-04 13:20 50.49195 8.51443 21440 ft 416 kts 17°
2026-05-04 13:20 50.51969 8.52821 21867 ft 420 kts 15°
2026-05-04 13:20 50.54765 8.54141 21978 ft 420 kts 15°
2026-05-04 13:20 50.57573 8.55438 21991 ft 420 kts 15°
2026-05-04 13:21 50.60379 8.56732 21989 ft 420 kts 15°
2026-05-04 13:21 50.63175 8.58035 21991 ft 419 kts 15°
2026-05-04 13:21 50.65973 8.59356 21986 ft 419 kts 15°
2026-05-04 13:21 50.68758 8.60693 21988 ft 419 kts 15°
2026-05-04 13:22 50.71540 8.62043 21987 ft 418 kts 15°
2026-05-04 13:22 50.74322 8.63400 21987 ft 418 kts 15°
2026-05-04 13:22 50.77143 8.64461 21985 ft 415 kts
2026-05-04 13:22 50.80003 8.64378 21987 ft 409 kts 346°
2026-05-04 13:23 50.82667 8.62937 21986 ft 403 kts 329°
2026-05-04 13:23 50.85024 8.60602 21986 ft 399 kts 319°
2026-05-04 13:23 50.87085 8.57692 21985 ft 395 kts 309°
2026-05-04 13:23 50.88903 8.54432 21988 ft 394 kts 307°
2026-05-04 13:24 50.90705 8.51162 21987 ft 394 kts 307°
2026-05-04 13:24 50.92497 8.47874 21987 ft 394 kts 307°
2026-05-04 13:24 50.94253 8.44609 21991 ft 394 kts 307°
2026-05-04 13:25 50.97785 8.37962 21992 ft 391 kts 306°
2026-05-04 13:25 50.99516 8.34693 21992 ft 388 kts 306°
2026-05-04 13:25 51.01392 8.31549 21987 ft 396 kts 315°
2026-05-04 13:25 51.03613 8.28922 21989 ft 401 kts 325°
2026-05-04 13:26 51.06050 8.26730 21983 ft 403 kts 327°
2026-05-04 13:26 51.08491 8.24561 21978 ft 402 kts 327°
2026-05-04 13:26 51.10907 8.22410 21980 ft 403 kts 327°
2026-05-04 13:26 51.13383 8.20207 21982 ft 403 kts 327°
2026-05-04 13:27 51.15828 8.18026 21983 ft 403 kts 327°
2026-05-04 13:27 51.18239 8.15872 21991 ft 403 kts 327°
2026-05-04 13:27 51.20691 8.13685 21972 ft 402 kts 327°
2026-05-04 13:27 51.23133 8.11506 21983 ft 402 kts 327°
2026-05-04 13:28 51.25574 8.09320 21989 ft 402 kts 327°
2026-05-04 13:28 51.28002 8.07143 21964 ft 394 kts 327°
2026-05-04 13:28 51.30354 8.05037 21849 ft 381 kts 326°
2026-05-04 13:28 51.32554 8.02831 21590 ft 368 kts 316°
2026-05-04 13:29 51.34254 7.99877 21114 ft 357 kts 298°
2026-05-04 13:29 51.35301 7.96330 20553 ft 350 kts 282°
2026-05-04 13:29 51.35670 7.92518 20010 ft 346 kts 271°
2026-05-04 13:29 51.35846 7.88720 19478 ft 347 kts 271°
2026-05-04 13:30 51.36033 7.84811 18941 ft 348 kts 271°
2026-05-04 13:30 51.36220 7.80943 18424 ft 349 kts 271°
2026-05-04 13:30 51.36407 7.77129 17863 ft 350 kts 271°
2026-05-04 13:30 51.36597 7.73236 17279 ft 351 kts 271°
2026-05-04 13:31 51.36780 7.69478 16723 ft 352 kts 271°
2026-05-04 13:31 51.36967 7.65568 16158 ft 353 kts 272°
2026-05-04 13:31 51.37153 7.61643 15601 ft 354 kts 272°
2026-05-04 13:31 51.37341 7.57722 14983 ft 350 kts 272°
2026-05-04 13:32 51.37525 7.53886 14379 ft 340 kts 272°
2026-05-04 13:32 51.37701 7.50160 13782 ft 332 kts 272°
2026-05-04 13:32 51.37869 7.46518 13120 ft 324 kts 272°
2026-05-04 13:32 51.38031 7.42958 12469 ft 318 kts 272°
2026-05-04 13:33 51.38188 7.39464 11829 ft 312 kts 272°
2026-05-04 13:33 51.38342 7.36028 11201 ft 307 kts 272°
2026-05-04 13:33 51.38494 7.32656 10612 ft 301 kts 272°
2026-05-04 13:33 51.38644 7.29342 10055 ft 295 kts 272°
2026-05-04 13:34 51.38787 7.26145 9472 ft 289 kts 272°
2026-05-04 13:34 51.38928 7.22958 8865 ft 284 kts 272°
2026-05-04 13:34 51.39066 7.19838 8277 ft 279 kts 272°
2026-05-04 13:34 51.39200 7.16766 7706 ft 274 kts 272°
2026-05-04 13:35 51.39329 7.13749 7138 ft 270 kts 272°
2026-05-04 13:35 51.39581 7.07823 5993 ft 263 kts 272°
2026-05-04 13:35 51.39707 7.04911 5339 ft 263 kts 272°
2026-05-04 13:36 51.39812 7.02001 4735 ft 259 kts 267°
2026-05-04 13:36 51.39350 6.99285 4151 ft 251 kts 237°
2026-05-04 13:36 51.38343 6.97054 3622 ft 244 kts 232°
2026-05-04 13:36 51.37322 6.94896 3083 ft 242 kts 232°
2026-05-04 13:37 51.36309 6.92762 2522 ft 240 kts 232°
2026-05-04 13:37 51.35335 6.90712 2028 ft 222 kts 233°
2026-05-04 13:37 51.34452 6.88862 1826 ft 197 kts 233°
2026-05-04 13:37 51.33925 6.87753 1665 ft 182 kts 233°
2026-05-04 13:38 51.32977 6.85755 1385 ft 156 kts 232°
2026-05-04 13:38 51.32358 6.84450 1147 ft 143 kts 233°
2026-05-04 13:38 51.31758 6.83186 963 ft 139 kts 231°
2026-05-04 13:38 51.31178 6.81965 777 ft 137 kts 233°
2026-05-04 13:39 51.30608 6.80765 579 ft 135 kts 235°
2026-05-04 13:39 51.30043 6.79577 399 ft 136 kts 234°
2026-05-04 13:39 51.29474 6.78376 216 ft 136 kts 234°
2026-05-04 13:39 51.28957 6.77289 138 ft 76 kts 232°
2026-05-04 13:40 51.28815 6.76988 140 ft 31 kts 233°